www.pogodaiklimat.ru

Погода и климат >> Архив погоды >> Иран >> Остров Киш


ПОГОДА на Острове Киш

  • Прогноз погоды на Острове Киш
  • Монитор погоды на Острове Киш

АРХИВ ПОГОДЫ на Острове Киш

Время (UTC), дата Ветер
(напр.,м/с)
 
Видим.   Явления Облачность Т
(С)
Тd
(С)
f
(%)
Тe
(С)
Тes
(С)
Комфортность P
(гПа)
Po
(гПа)
Тmin
(С)
Tmax
(С)
R
(мм)
R24
(мм)
S
(см)
21 9.01 СЗ 2 5000 м дымка 3/0
[Ci fib]
+20.4 +18.8 91 +25 +25 комфорт 1016.7 1013.2
00 10.01 З 3 5000 м дымка 1/0
[Ci fib]
+20.0 +18.7 92 +23 +23 комфорт 1016.2 1012.7
03 10.01 СЗ 2 4000 м дымка 3/1 300 м
[St Ci fib]
+20.6 +19.7 95 +26 +26 душно 1017.2 1013.7 +20.0
06 10.01 СЗ 7 4000 м дымка 4/4 750 м
[Cu hum]
+22.8 +19.4 81 +29 +30 очень
душно
1019.0 1015.5
09 10.01 СЗ 7 4000 м мгла 4/4 750 м
[Cu hum]
+23.6 +16.1 63 +27 +29 жарко 1017.3 1013.8
12 10.01 СЗ 10 5000 м пыльный позёмок 3/0
[Ci fib]
+23.6 +16.4 64 +27 +27 жарко 1015.9 1012.4
15 10.01 СЗ 10 7000 м мгла 5/0
[Cs]
+21.4 +15.2 68 +25 +25 комфорт 1017.1 1013.6 +24.4
18 10.01 СЗ 10 8000 м мгла 3/0
[Ci fib]
+21.0 +14.3 66 +23 +23 комфорт 1017.1 1013.6
21 10.01 СЗ 10 8000 м мгла 3/0
[Ci fib]
+20.2 +13.4 65 +22 +22 комфорт 1016.2 1012.7
00 11.01 СЗ 9 10 км 3/0
[Ci fib]
+19.8 +13.1 65 +21 +21 комфорт 1015.8 1012.3
03 11.01 З 8 10 км 1/0
[Ci fib]
+18.8 +12.0 65 +19 +19 1016.4 1012.9 +18.8
06 11.01 СЗ 10 14 км 3/0
[Ci fib]
+20.8 +11.0 53 +22 +22 комфорт 1018.2 1014.7
09 11.01 З 11 14 км 3/0
[Ci fib]
+22.8 +10.9 47 +25 +25 комфорт 1016.4 1012.9
12 11.01 СЗ 10 14 км 3/0
[Ci fib]
+22.6 +13.5 56 +26 +26 жарко 1015.6 1012.1
15 11.01 СЗ 8 10 км 4/0
[Ci fib]
+20.4 +13.4 64 +22 +22 комфорт 1016.8 1013.3 +23.0
18 11.01 СЗ 7 10 км 4/0
[Ci fib]
+19.8 +13.1 65 +21 +21 комфорт 1017.6 1014.1
21 11.01 З 4 10 км 4/0
[Ci fib]
+19.0 +12.6 66 +20 +20 1016.8 1013.3
00 12.01 СЗ 3 10 км 3/0
[Ci fib]
+18.4 +12.5 68 +19 +19 1016.5 1013.0
03 12.01 СЗ 2 10 км 3/0
[Ci fib]
+16.6 +10.0 65 +17 +17 1017.5 1014.0 +16.6
06 12.01 ЮВ 2 10 км 1/0
[Ci fib]
+22.6 +12.2 52 +25 +31 комфорт 1019.7 1016.2
09 12.01 В 5 8000 м мгла 3/1 1050 м
[Cu hum Ci fib]
+23.6 +15.1 59 +26 +31 жарко 1017.8 1014.3
12 12.01 Ю 4 8000 м мгла 4/4 750 м
[Cu med, cong Ci fib]
+23.6 +16.1 63 +27 +28 жарко 1016.8 1013.3
15 12.01 ЮВ 2 8000 м мгла 4/0
[Ci fib]
+21.2 +15.1 68 +24 +24 комфорт 1018.3 1014.8 +24.2
18 12.01 ЮВ 2 8000 м мгла 5/0
[Ac trans Ci fib]
+20.4 +15.0 71 +24 +24 комфорт 1018.0 1014.5
21 12.01 штиль 0 8000 м мгла 4/0
[Ci fib]
+18.6 +14.8 79 +19 +19 1018.0 1014.5
00 13.01 В 2 8000 м дымка 1/0
[Ci fib]
+18.0 +14.6 81 +19 +19 1017.5 1014.0
03 13.01 В 2 6000 м дымка 1/0
[Ci fib]
+18.6 +15.2 81 +20 +20 1018.6 1015.1 +17.6
06 13.01 В 3 6000 м мгла 4/0
[Ci fib]
+22.4 +15.6 65 +26 +31 жарко 1020.8 1017.3
09 13.01 ЮВ 3 6000 м мгла 4/0
[Ci fib]
+24.0 +12.7 49 +26 +34 жарко 1018.8 1015.3
12 13.01 ЮВ 3 6000 м мгла 4/0
[Ci fib]
+23.8 +13.3 52 +26 +28 жарко 1017.0 1013.5
15 13.01 В 2 6000 м мгла 8/0
[Cs]
+20.6 +14.1 66 +24 +24 комфорт 1017.5 1014.0 +24.8
18 13.01 СВ 2 6000 м мгла 5/0
[Cs]
+18.4 +12.9 70 +19 +19 1018.5 1015.0
21 13.01 штиль 0 6000 м мгла 4/0
[Ci fib]
+18.4 +13.3 72 +19 +19 1017.6 1014.1
00 14.01 В 3 6000 м мгла 3/0
[Ci fib]
+19.8 +14.5 71 +22 +22 комфорт 1017.6 1014.1
03 14.01 В 3 6000 м мгла 6/0
[Cs]
+20.0 +14.1 69 +22 +22 комфорт 1018.2 1014.7 +18.2
06 14.01 В 7 6000 м мгла 9/0
[Ac trans Cs]
+22.6 +15.0 62 +26 +28 жарко 1020.7 1017.2
09 14.01 ЮВ 10 6000 м мгла 6/3 900 м
[Cu hum Ci fib]
+23.8 +15.2 59 +27 +27 жарко 1018.7 1015.2
12 14.01 ЮВ 5 6000 м мгла 6/4 750 м
[Cu med, cong Ci fib]
+24.2 +16.4 62 +28 +28 душно 1018.0 1014.5
15 14.01 ЮВ 3 6000 м мгла 8/1 900 м
[Cu med, cong Cs]
+21.4 +15.6 70 +25 +25 комфорт 1018.6 1015.1 +25.0
18 14.01 В 3 6000 м мгла 8/1 900 м
[Cu hum Cs]
+20.8 +14.5 67 +24 +24 комфорт 1019.5 1016.0
21 14.01 СВ 4 6000 м мгла 5/0
[Cs]
+20.0 +14.3 70 +22 +22 комфорт 1018.5 1015.0
00 15.01 В 5 6000 м мгла 3/0
[Ci fib]
+20.4 +14.8 70 +23 +23 комфорт 1018.5 1015.0
03 15.01 В 5 6000 м мгла 3/0
[Ci fib]
+20.4 +14.8 70 +23 +23 комфорт 1018.5 1015.0
06 15.01 В 4 6000 м мгла 1/0
[Ci fib]
+23.2 +17.2 69 +28 +32 душно 1020.9 1017.4
09 15.01 ЮВ 4 6000 м мгла 1/0
[Ci fib]
+26.0 +17.4 59 +30 +37 душно 1019.1 1015.6
12 15.01 Ю 6 6000 м мгла 1/0
[Ci fib]
+25.0 +18.2 66 +29 +30 душно 1017.2 1013.7
15 15.01 штиль 0 6000 м мгла 1/0
[Ci fib]
+22.2 +16.6 71 +27 +27 душно 1018.5 1015.0 +26.2
18 15.01 СЗ 2 5000 м дымка 3/0
[Ci fib]
+21.2 +18.3 84 +25 +25 комфорт 1019.2 1015.7
21 15.01 штиль 0 5000 м дымка 3/0
[Ci fib]
+20.4 +17.8 85 +24 +24 комфорт 1018.0 1014.5
00 16.01 штиль 0 5000 м дымка 1/0
[Ci fib]
+20.0 +18.1 89 +23 +23 комфорт 1017.0 1013.5
03 16.01 СВ 2 4000 м дымка ясно +19.0 +18.4 96 +21 +21 комфорт 1017.1 1013.6 +18.6
06 16.01 штиль 0 5000 м мгла ясно +23.4 +17.6 70 +29 +37 душно 1018.7 1015.2
09 16.01 ЮЗ 3 7000 м мгла ясно +26.2 +13.3 45 +28 +36 жарко 1016.7 1013.2
12 16.01 З 4 8000 м мгла ясно +25.0 +17.0 61 +29 +30 душно 1014.8 1011.3
15 16.01 З 3 7000 м мгла ясно +21.8 +16.9 74 +26 +26 душно 1015.2 1011.7 +26.8
18 16.01 ЮЗ 2 7000 м дымка ясно +20.4 +17.5 83 +24 +24 комфорт 1016.0 1012.5

 

Местоположение метеостанции Остров Киш (Иран): широта 26.50 долгота 53.98 высота над уровнем моря 30 м.

В архиве по умолчанию представлена погода на Острове Киш за последнюю неделю. Архивные данные за месяц целиком и за предыдущие месяцы, начиная с января 2011 года, Вы можете получить, выбрав интересующий диапазон дат из раскрывающегося списка и нажав кнопку "Ввод!".


*Определитесь, кто Вы:
робот инопланетянин человек

Внимание! Время в таблицах - всемирное. Для получения местного времени необходимо прибавить поправку, которая равна 3.5 ч.

Смотрите также архив погоды в соседних городах и на ближайших метеорологических станциях:

Погода в Бендер-Ленге (Иран) (85 км)
Погода на Острове Сирри (Иран) (87 км)
Погода на Острове Абу-Муса (Иран) (113 км)
Погода в Дубае (ОАЭ) (194 км)
Погода в Шардже (ОАЭ) (202 км)
Погода в Аль-Мактум аэропорту (ОАЭ) (214 км)
Погода в Рай-эль-Хайма аэропорту (ОАЭ) (218 км)
Погода в Эль-Хасаб аэропорту (Оман) (227 км)
Погода в Эль-Хасабе (Оман) (228 км)
Погода в Абу-Даби Батин аэропорту (ОАЭ) (235 км)

Пояснения к столбцам:

Ветер - указаны скорость ветра в м/с - средняя за 10 мин, порывы в срок и между сроками (в фигурных скобках) и направление, откуда дует ветер: С - северный, СВ - северо-восточный, В - восточный, ЮВ - юго-восточный, Ю - южный, ЮЗ - юго-западный, З - западный, СЗ - северо-западный.
Видимость - горизонтальная дальность видимости в метрах или километрах. При видимости от 1 до 10 км при отсутствии осадков обычно наблюдается дымка, при ухудшении видимости до 1 км и менее - туман. В сухую погоду видимость может ухудшаться дымом, пылью или мглою.
Явления - указаны атмосферные явления, наблюдавшиеся в срок или в последний час перед сроком; фигурными скобками обозначены явления, наблюдавшиеся между сроками (за 1-3 часа до срока); квадратными скобками обозначены град или гололедные отложения с указанием их диаметра в мм.
Облачность - указаны через наклонную черту общая и нижняя облачность в баллах и высота нижней границы облаков в метрах; квадратными скобками обозначены формы облаков: Ci - перистые, Cs - перисто-слоистые, Cc - перисто-кучевые, Ac - высококучевые, As - высокослоистые, Sc - слоисто-кучевые, Ns - слоисто-дождевые, Cu - кучевые, Cb - кучево-дождевые. Подробнее классификацию облаков см. в Атласе облаков (PDF).
T - Температура воздуха - температура, измеренная на высоте 2 м над землей.
Td - Температура точки росы - температура, при понижении до которой содержащийся в воздухе водяной пар достигнет насыщения.
f - Относительная влажность воздуха - влажноcть воздуха, измеренная на высоте 2 м над землей.
Te - Эффективная температура - температура, которую ощущает одетый по сезону человек в тени. Характеристика душности погоды. При расчете учитывается влияние влажности воздуха и скорости ветра на теплоощущения человека.
Tes - Эффективная температура на солнце - температура, которую ощущает человек, с поправкой на солнечный нагрев. Характеристика знойности погоды. Зависит от высоты солнца над горизонтом, облачности и скорости ветра. Ночью, в пасмурную погоду, а также при ветре 12 м/с и более поправка равна нулю.
P - Атмосферное давление - приведенное к уровню моря атмосферное давление.
Po - Атмосферное давление - измеренное на уровне метеостанции атмосферное давление.
Tmin - Минимальная температура - минимум температуры воздуха на высоте 2 м над землей.
Tmax - Максимальная температура - максимум температуры воздуха на высоте 2 м над землей.
R - Количество осадков - Количество выпавших осадков за период времени, мм. При наведении курсора мыши на число - период времени, за который выпало указанное количество осадков.
R24 - Количество осадков - Количество выпавших осадков за 24 часа, мм.
S - Снежный покров - Высота снежного покрова, см. При наведении курсора мыши на число - состояние снежного покрова и степень покрытия местности в баллах.